Regional Weather Roundup
Issued by NWS Charleston, SC

Current Version | Previous Version | Graphics & Text | Print | Product List | Glossary On
Versions: 1 2 3 4 5 6 7 8 9 10 11 12 13 14 15 16 17 18 19 20 21 22 23 24 25 26 27 28 29 30 31 32 33 34 35 36 37 38 39 40 41 42 43 44 45 46 47 48 49 50
000 ASUS42 KCHS 290013 RWRCHS REGIONAL WEATHER ROUNDUP NATIONAL WEATHER SERVICE CHARLESTON SC 800 PM EDT THU APR 28 2016 NOTE: "FAIR" INDICATES FEW OR NO CLOUDS BELOW 12,000 FEET WITH NO SIGNIFICANT WEATHER AND/OR OBSTRUCTIONS TO VISIBILITY. NOT ALL STATIONS ARE QUALITY CONTROLLED. USE DATA WITH CAUTION... ESPECIALLY DEWPOINT OBSERVATIONS. SCZ027-030-031-034>040-042>050-290100- ...SOUTHEAST SOUTH CAROLINA... CITY SKY/WX TMP DP RH WIND PRES REMARKS N CHARLESTON CLOUDY 72 68 87 S8 29.90F 6HR MIN TEMP: 68; 6HR MAX TEMP: 87; 6HR PCP: 1.47; WATERFRONT PRK N/A 74 69 84 S6 29.90F MOUNT PLEASANT FAIR 72 70 94 S8 29.92S JOHNS ISLAND FAIR 73 70 88 S9 29.92F PINOPOLIS N/A 77 68 73 SW5 29.83R MONCKS CORNER FAIR 70 63 78 S8 29.90S SUMMERVILLE FAIR 72 70 94 S3 29.91F BEAUFORT MCAS CLOUDY 77 70 79 S5 29.92R 6HR MIN TEMP: 77; 6HR MAX TEMP: 86; 6HR PCP: 0.01; BEAUFORT ARPT FAIR 77 68 73 S6 29.92S HILTON HEAD IS CLOUDY 77 70 78 S3 29.94S WALTERBORO PTCLDY 79 70 73 S6 29.92R ALLENDALE FAIR 79 68 69 CALM 29.90R ...SOUTHERN MIDLANDS AND PEE DEE... CITY SKY/WX TMP DP RH WIND PRES REMARKS GEORGETOWN FAIR 70 66 88 S7 29.92F KINGSTREE FAIR 72 64 78 S6 29.89S ORANGEBURG CLEAR 79 66 64 SW12 29.89R 6HR MIN TEMP: 79; 6HR MAX TEMP: 88; BARNWELL FAIR 79 72 78 SW5 29.91R AIKEN FAIR 77 68 73 S8 29.93R MANNING NOT AVBL COLUMBIA PTCLDY 83 65 54 SW7 29.86R 6HR MIN TEMP: 83; 6HR MAX TEMP: 89; SUMTER PTCLDY 79 66 63 SW8 29.85R 6HR MIN TEMP: 79; 6HR MAX TEMP: 87; FLORENCE MOCLDY 81 68 64 S7 29.87R 6HR MIN TEMP: 81; 6HR MAX TEMP: 86; MYRTLE BEACH PTCLDY 73 63 68 SW8 29.92S N MYRTLE BEACH PTCLDY 72 66 81 SW16 29.90S 6HR MIN TEMP: 72; 6HR MAX TEMP: 78; $$ GAZ063-065-086>088-099>101-113>116-118-119-134>141-150-290100- ...SOUTHEAST GEORGIA... CITY SKY/WX TMP DP RH WIND PRES REMARKS SAVANNAH ARPT MOCLDY 78 67 68 W8 29.94R 6HR MIN TEMP: 78; 6HR MAX TEMP: 88; HUNTER AAF MOCLDY 79 69 71 W7 29.92R 6HR MIN TEMP: 79; 6HR MAX TEMP: 87; FORT STEWART CLOUDY 76 70 81 CALM 29.92R 6HR MIN TEMP: 76; 6HR MAX TEMP: 85; 6HR PCP: TRACE; STATESBORO PTCLDY 77 72 83 SW3 29.93S SYLVANIA CLOUDY 76 70 80 SW5 29.94R CLAXTON FAIR 74 72 92 CALM 29.94S ...CSRA...CENTRAL AND FAR SOUTHEAST GEORGIA... CITY SKY/WX TMP DP RH WIND PRES REMARKS THOMSON CLEAR 82 69 65 SW5 29.95R AUGUSTA-BUSH CLEAR 78 70 76 SW9 29.89R 6HR MIN TEMP: 78; 6HR MAX TEMP: 87; AUGUSTA-DANIEL CLEAR 83 66 56 VRB5 29.91R SWAINSBORO FAIR 75 72 88 W5 29.94S VIDALIA CLOUDY 73 72 94 SW5 29.95S EASTMAN FAIR 75 75 99 W3 29.98S HAZLEHURST FAIR 79 68 69 CALM 29.95R ALMA PTCLDY 77 72 84 S5 29.96S 6HR MIN TEMP: 76; 6HR MAX TEMP: 83; 6HR PCP: TRACE; WAYCROSS MOCLDY 76 70 81 SW6 29.96S JESUP FAIR 79 72 78 SW3 29.95S BAXLEY FAIR 77 75 94 S5 29.95S BRUNSWICK PTCLDY 81 70 69 CALM 29.96S SAINT SIMONS PTCLDY 73 70 90 SW3 29.95S 6HR MIN TEMP: 72; 6HR MAX TEMP: 82; 6HR PCP: 0.17; $$ SCZ027-028-034-036>038-045-046-048>050-GAZ119-141-290100- ...LAKE AND SUPPLEMENTAL COASTAL OBSERVATIONS... STATION/POSITION TIME TEMP WIND PRES WAVE SWELL AIR SEA DIR/SP/G HT/PER HT/PER/DIR (UTC) (F) (DEG/KT/KT) (MB) (FT/S) (FT/S/D) WINYAH BAY 2245 73 230/ 12 1012.0 LAKE MURRAY 2300 81 230/ 10/ 13 1010.5S ACE BASIN NERRS 2245 76 CALM 1013.0 FORT PULASKI 2300 76 72 1013.9F SAPELO ISLAND 2300 81 230/ 3 1014.0S $$ ANZ835-935-AMZ111-154-330-350-352-354-370-450-454-472-290100- ...C-MAN AND BUOY OBSERVATIONS... STATION/POSITION TIME TEMP WIND PRES WAVE SWELL AIR SEA DIR/SP/G HT/PER HT/PER/DIR (UTC) (F) (DEG/KT/KT) (MB) (FT/S) (FT/S/D) BUOY 41004 2350 72 71 190/ 12/ 16 1012.9F 3/ 5 2/ 8 BUOY 41008 NOT AVBL FOLLY BEACH CMAN 0000 72 190/ 11/ 13 1013.4F CAPERS NEARSHORE 2308 72 70 220/ 12/ 16 1013.2F FRIPP NEARSHORE 2308 73 72 200/ 12/ 16 1012.8F STATION/POSITION TIME TEMP WIND PRES WAVE SWELL AIR SEA DIR/SP/G HT/PER HT/PER/DIR (UTC) (F) (DEG/KT/KT) (MB) (FT/S) (FT/S/D) 5E ST. MARYS GA 2321 72 N/A 2/ 4 FRYING PAN BUOY 2300 72 70 200/ 12/ 14 1012.9R BUOY 41025 2350 73 72 220/ 17/ 19 1012.1R 4/ 5 2/ 60/10 CAPE LOOKOUT NC 2300 70 210/ 11/ 14 1011.8F BUOY 41002 2350 71 71 180/ 10/ 12 1016.2R 2/11 2/ 60/11 BUOY 41010 2320 76 77 180/ 6/ 6 1016.2R ST AUGUSTINE FL 0000 74 72 170/ 10/ 11 1015.8R $$

USA.gov is the U.S. government's official web portal to all federal, state and local government web resources and services.